This demonstration page uses our WeatherBlox Daily Observations layout. Learn more.

Left ArrowRight Arrow

41.55636, -103.73856

Hourly Observations for May 19, 2020

Temp ( °F °C ) Dew Point ( °F °C ) Humidity (%) Winds ( mph kmh ) Pressure ( in mb ) Visibility ( mi km ) Precip ( " mm )
12:58 am 00:58 Clear 72 22 51 10.5 48 48 SSE 17 28 29.82 1010 10 16 N/A
1:58 am 01:58 Clear 67 19.3 52 11 59 59 E 7 11 29.85 1011 10 16 N/A
2:58 am 02:58 Clear 65 18.1 51 10.8 63 63 SE 13 20 29.85 1011 10 16 N/A
3:58 am 03:58 Clear 63 17.4 51 10.7 65 65 S 24 39 29.83 1010 10 16 N/A
4:58 am 04:58 Clear 62 16.5 51 10.4 67 67 S 26 43 29.83 1010 10 16 N/A
5:59 am 05:59 Clear 60 15.8 50 10 69 69 S 26 43 29.81 1010 10 16 N/A
6:58 am 06:58 Clear 59 14.8 49 9.7 72 72 S 24 39 29.81 1010 10 16 N/A
7:58 am 07:58 Clear 58 14.3 49 9.2 72 72 S 26 43 29.80 1009 10 16 N/A
8:58 am 08:58 Clear 56 13.4 48 9 75 75 S 12 19 29.83 1010 10 16 N/A
9:58 am 09:58 Clear 54 12.2 48 8.7 79 79 E 3 6 29.84 1010 10 16 N/A
10:58 am 10:58 Clear 55 12.5 48 9.1 80 80 S 17 28 29.83 1010 10 16 N/A
11:58 am 11:58 Sunny 53 11.4 48 8.9 85 85 S 18 30 29.83 1010 10 16 N/A
12:58 pm 12:58 Sunny 54 12.4 49 9.4 82 82 S 15 24 29.84 1011 10 16 N/A
1:58 pm 13:58 Sunny 60 15.3 51 10.5 73 73 S 17 28 29.84 1011 10 16 N/A
2:58 pm 14:58 Sunny 64 17.8 52 11.3 66 66 S 15 24 29.83 1010 10 16 N/A
3:58 pm 15:58 Sunny 68 20.2 53 11.9 59 59 SSW 12 19 29.83 1010 10 16 N/A
4:58 pm 16:58 Sunny 72 22.3 55 12.8 55 55 S 12 19 29.83 1010 10 16 N/A
5:58 pm 17:58 Sunny 75 24.1 54 12.3 48 48 S 12 19 29.81 1009 10 16 N/A
6:58 pm 18:58 Sunny 79 26.3 54 12.3 42 42 S 9 15 29.78 1008 10 16 N/A
7:58 pm 19:58 Sunny 83 28.2 54 12.3 37 37 SSE 16 26 29.76 1008 10 16 N/A
8:58 pm 20:58 Sunny 85 29.2 54 12 35 35 SSE 13 20 29.74 1007 10 16 N/A
9:58 pm 21:58 Sunny 85 29.2 54 12.3 35 35 SE 15 24 29.72 1006 10 16 N/A
10:58 pm 22:58 Sunny 82 28 54 12.4 38 38 SE 18 30 29.70 1006 10 16 N/A
11:58 pm 23:58 Sunny 81 27 53 11.9 39 39 SSE 25 41 29.70 1006 10 16 N/A

Powered by AerisWeather